www.pogodaiklimat.ru

Погода и климат >> Архив погоды >> Индия >> Kota


ПОГОДА в Kota

  • Прогноз погоды в Kota
  • Монитор погоды в Kota
  • Климат города

АРХИВ ПОГОДЫ в Kota

Время (UTC), дата Ветер
(напр.,м/с)
 
Видим.   Явления Облачность Т
(С)
Тd
(С)
f
(%)
Тe
(С)
Тes
(С)
Комфортность P
(гПа)
Po
(гПа)
Тmin
(С)
Tmax
(С)
R
(мм)
R24
(мм)
S
(см)
00 20.07 штиль 0 4000 м гроза без осадков 9/8 600 м
[Cb cap Ac trans]
+26.0 +23.4 86 +35 +35 очень
душно
997.1 997.0
03 20.07 штиль 0 4000 м {гроза, дождь} 9/5 600 м
[Sc As trans]
+27.6 +24.4 83 +39 +41 очень
душно
997.8 998.0 +25.5 +34.6 0.8
06 20.07 СВ 1 4000 м 6/4 600 м
[Sc diur, vesp Ac trans]
+32.0 +25.8 70 +47 +59 опасность
перегрева
997.1 997.0
09 20.07 ЮЗ 1 4000 м дождь 10/8 600 м
[Sc As op]
+27.6 +26.8 95 +43 +44 опасность
перегрева
994.8 995.0 1
12 20.07 штиль 0 4000 м 10/8 600 м
[Sc Ac trans]
+30.0 +25.5 77 +44 +44 опасность
перегрева
993.7 994.0 +34.5 1
15 20.07 ЮЗ 1 4000 м в посл. час снег {гроза, дождь} 10/8 600 м
[Cb cap As op]
+27.6 +26.2 92 +42 +42 опасность
перегрева
995.2 995.0 8
18 20.07 штиль 0 4000 м 10/6 600 м
[Sc As op]
+27.4 +26.0 92 +41 +41 опасность
перегрева
996.6 997.0 8
21 20.07 штиль 0 4000 м 10/6 600 м
[Sc As op]
+27.0 +26.2 95 +41 +41 опасность
перегрева
995.8 996.0 8
00 21.07 штиль 0 4000 м 10/6 600 м
[Sc As op]
+26.4 +25.8 97 +39 +39 очень
душно
996.5 997.0 8
03 21.07 штиль 0 4000 м в посл. час снег {морось} 10/6 600 м
[St As op]
+27.0 +25.6 92 +40 +41 очень
душно
998.4 998.0 +25.8 +34.5 0.0
06 21.07 СЗ 1 4000 м 9/5 600 м
[St As op]
+29.0 +24.7 78 +41 +46 опасность
перегрева
997.8 998.0
12 21.07 штиль 0 4000 м гроза, ливневой дождь 9/6 600 м
[Cb cap As trans]
+26.2 +24.8 92 +37 +38 очень
душно
994.9 995.0 +30.0 3
15 21.07 штиль 0 4000 м слабый дождь 10/8 600 м
[Sc As op]
+27.2 +26.1 94 +41 +41 опасность
перегрева
995.9 996.0 4
18 21.07 штиль 0 4000 м {дождь} 8/5 600 м
[Sc Ac trans]
+27.0 +26.2 95 +41 +41 опасность
перегрева
997.3 997.0 5
21 21.07 штиль 0 4000 м 6/4 600 м
[Sc Ac trans]
+26.6 +25.7 95 +39 +39 очень
душно
996.6 997.0 5
00 22.07 штиль 0 4000 м 6/5 600 м
[Sc Ac trans]
+26.0 +25.1 95 +37 +37 очень
душно
997.0 997.0 5
03 22.07 штиль 0 4000 м 10/8 600 м
[St As trans]
+27.4 +26.0 92 +41 +42 опасность
перегрева
996.4 996.0 +25.8 +30.0 5
06 22.07 С 1 1000 м осадки на расстоянии 10/8 600 м
[St As trans]
+29.6 +26.2 82 +45 +47 опасность
перегрева
996.1 996.0
09 22.07 штиль 0 4000 м 9/6 600 м
[Cb cap Ac trans]
+30.6 +26.1 77 +46 +51 опасность
перегрева
994.3 994.0
12 22.07 штиль 0 4000 м гроза без осадков 10/6 600 м
[Cb cap As trans]
+30.4 +25.6 76 +45 +46 опасность
перегрева
993.9 994.0 +30.8
15 22.07 штиль 0 2000 м гроза, ливневой дождь 10/8 600 м
[Cb cap As op]
+27.2 +26.6 97 +42 +42 опасность
перегрева
995.5 996.0 37
18 22.07 З 1 4000 м в посл. час снег {дождь} 10/8 600 м
[Sc As op]
+27.0 +26.4 97 +41 +41 опасность
перегрева
996.7 997.0 37
21 22.07 штиль 0 4000 м 10/8 600 м
[Sc As op]
+26.6 +25.7 95 +39 +39 очень
душно
996.3 996.0 37
00 23.07 штиль 0 4000 м 10/5 600 м
[Cb cap As op]
+26.0 +25.4 97 +38 +38 очень
душно
997.1 997.0 37
03 23.07 штиль 0 4000 м 9/5 600 м
[Sc As trans]
+28.0 +25.7 87 +41 +44 опасность
перегрева
995.5 996.0 +26.0 +30.8 37
06 23.07 штиль 0 4000 м 10/8 600 м
[Sc As op]
+28.6 +25.8 85 +43 +44 опасность
перегрева
995.6 996.0
09 23.07 З 4 4000 м 9/6 600 м
[Sc Ac trans]
+30.6 +24.9 72 +44 +46 опасность
перегрева
994.2 994.0
12 23.07 ЮЗ 3 4000 м 10/6 600 м
[Sc Ac trans]
+28.6 +24.3 78 +40 +41 очень
душно
994.0 994.0 +31.5
15 23.07 Ю 2 4000 м 10/8 600 м
[St As trans]
+27.0 +24.7 87 +38 +38 очень
душно
995.7 996.0
18 23.07 Ю 1 4000 м 10/8 600 м
[St As trans]
+26.4 +24.2 88 +37 +37 очень
душно
996.5 997.0
21 23.07 Ю 2 4000 м 9/8 600 м
[St As trans]
+26.0 +23.4 86 +35 +35 очень
душно
995.4 995.0
00 24.07 В 1 4000 м 9/8 600 м
[St As trans]
+25.4 +23.1 87 +34 +34 очень
душно
995.2 995.0
03 24.07 ЮВ 2 4000 м 10/8 600 м
[St As trans]
+26.4 +23.5 84 +36 +36 очень
душно
996.0 996.0 +24.8 +31.5
06 24.07 ЮЗ 3 4000 м 10/8 600 м
[St As trans]
+27.6 +23.8 80 +38 +39 очень
душно
995.6 996.0
09 24.07 З 4 4000 м 9/6 600 м
[Sc Ac trans]
+29.4 +23.6 71 +40 +43 очень
душно
994.9 995.0
12 24.07 ЮЗ 4 4000 м 8/5 600 м
[Sc Ac trans]
+29.0 +23.2 71 +39 +40 очень
душно
994.2 994.0 +29.9
15 24.07 ЮЗ 3 4000 м 10/6 600 м
[Cb cap Ac trans]
+27.4 +23.9 81 +38 +38 очень
душно
995.4 995.0
18 24.07 З 2 4000 м 10/6 600 м
[Sc As op]
+26.4 +24.4 89 +37 +37 очень
душно
996.1 996.0
21 24.07 З 2 4000 м 10/8 600 м
[Sc As op]
+26.0 +24.6 92 +37 +37 очень
душно
995.2 995.0
00 25.07 З 1 4000 м 10/6 600 м
[St As trans]
+25.4 +23.7 90 +35 +35 очень
душно
995.7 996.0
03 25.07 штиль 0 4000 м {морось} 10/6 600 м
[Sc As op]
+25.6 +23.6 89 +35 +36 очень
душно
995.6 996.0 +23.5 +29.9 0.0
06 25.07 штиль 0 4000 м слабая морось {дождь} 10/8 600 м
[Sc As op]
+26.6 +24.0 86 +37 +38 очень
душно
996.2 996.0 0.6
09 25.07 штиль 0 4000 м {дождь} 9/6 600 м
[Sc Ac trans]
+29.0 +23.2 71 +39 +44 очень
душно
994.5 995.0 0.8
12 25.07 З 1 2000 м слабая морось {дождь} 10/8 600 м
[Sc As trans]
+26.4 +25.0 92 +38 +38 очень
душно
994.4 994.0 +30.0 1
15 25.07 ЮЗ 2 4000 м 8/5 600 м
[Sc Ac trans]
+26.6 +25.2 92 +38 +38 очень
душно
996.3 996.0 1
18 25.07 ЮЗ 2 4000 м 8/6 600 м
[Sc Ac trans]
+26.0 +24.6 92 +37 +37 очень
душно
997.8 998.0 1
21 25.07 З 2 4000 м 8/5 600 м
[Sc Ac trans]
+26.4 +24.7 90 +37 +37 очень
душно
996.7 997.0 1
00 26.07 ЮЗ 2 4000 м 8/5 600 м
[Sc Ac trans]
+26.0 +24.6 92 +37 +37 очень
душно
997.2 997.0 1
03 26.07 штиль 0 2000 м мгла 10/8 600 м
[Sc As op]
+26.4 +25.0 92 +38 +38 очень
душно
998.4 998.0 +25.0 +30.0 1
06 26.07 ЮЗ 1 4000 м 10/6 600 м
[Sc As op]
+27.6 +25.0 86 +40 +42 очень
душно
998.8 999.0
09 26.07 СВ 1 4000 м 8/5 600 м
[Sc diur, vesp Ac trans]
+30.4 +25.0 73 +44 +51 опасность
перегрева
997.2 997.0
12 26.07 В 1 4000 м 5/3 600 м
[Sc diur, vesp Ac trans]
+30.6 +24.0 68 +42 +44 опасность
перегрева
996.2 996.0 +31.2
15 26.07 В 1 4000 м 6/4 600 м
[Sc Ac trans]
+29.4 +23.0 68 +39 +39 очень
душно
997.8 998.0
18 26.07 В 1 4000 м 4/4 600 м
[Sc]
+28.6 +22.4 69 +37 +37 очень
душно
999.2 999.0
21 26.07 штиль 0 4000 м 10/8 600 м
[Sc As op]
+27.6 +22.6 74 +36 +36 очень
душно
998.0 998.0

 

Местоположение метеостанции Kota (Rajasthan, Индия): широта 25.15 долгота 75.85 высота над уровнем моря 274 м.

В архиве по умолчанию представлена погода в Kota за последнюю неделю. Архивные данные за месяц целиком и за предыдущие месяцы, начиная с января 2011 года, Вы можете получить, выбрав интересующий диапазон дат из раскрывающегося списка и нажав кнопку "Ввод!".

Внимание! Время в таблицах - всемирное. Для получения местного времени необходимо прибавить поправку, которая в Kota равна 5.5 ч.

Смотрите также архив погоды в соседних городах и на ближайших метеорологических станциях:

Погода в Sheopur (Madhya Pradesh, Индия) (101 км)
Погода в Bhilwara (Rajasthan, Индия) (125 км)
Погода в Chittorgarh (Rajasthan, Индия) (127 км)
Погода в Rajgarh (Madhya Pradesh, Индия) (155 км)
Погода в Guna (Madhya Pradesh, Индия) (158 км)
Погода в Shivpuri (Madhya Pradesh, Индия) (182 км)
Погода в Jaipur (Rajasthan, Индия) (186 км)
Погода в Ajmer (Rajasthan, Индия) (190 км)
Погода в Shajapur (Madhya Pradesh, Индия) (197 км)
Погода в Udaipur Dabok (Rajasthan, Индия) (207 км)

Пояснения к столбцам:

Ветер - указаны скорость ветра в м/с - средняя за 10 мин, порывы в срок и между сроками (в фигурных скобках) и направление, откуда дует ветер: С - северный, СВ - северо-восточный, В - восточный, ЮВ - юго-восточный, Ю - южный, ЮЗ - юго-западный, З - западный, СЗ - северо-западный.
Видимость - горизонтальная дальность видимости в метрах или километрах. При видимости от 1 до 10 км при отсутствии осадков обычно наблюдается дымка, при ухудшении видимости до 1 км и менее - туман. В сухую погоду видимость может ухудшаться дымом, пылью или мглою.
Явления - указаны атмосферные явления, наблюдавшиеся в срок или в последний час перед сроком; фигурными скобками обозначены явления, наблюдавшиеся между сроками (за 1-3 часа до срока); квадратными скобками обозначены град или гололедные отложения с указанием их диаметра в мм.
Облачность - указаны через наклонную черту общая и нижняя облачность в баллах и высота нижней границы облаков в метрах; квадратными скобками обозначены формы облаков: Ci - перистые, Cs - перисто-слоистые, Cc - перисто-кучевые, Ac - высококучевые, As - высокослоистые, Sc - слоисто-кучевые, Ns - слоисто-дождевые, Cu - кучевые, Cb - кучево-дождевые. Подробнее классификацию облаков см. в Атласе облаков (PDF).
T - Температура воздуха - температура, измеренная на высоте 2 м над землей.
Td - Температура точки росы - температура, при понижении до которой содержащийся в воздухе водяной пар достигнет насыщения.
f - Относительная влажность воздуха - влажноcть воздуха, измеренная на высоте 2 м над землей.
Te - Эффективная температура - температура, которую ощущает одетый по сезону человек в тени. Характеристика душности погоды. При расчете учитывается влияние влажности воздуха и скорости ветра на теплоощущения человека.
Tes - Эффективная температура на солнце - температура, которую ощущает человек, с поправкой на солнечный нагрев. Характеристика знойности погоды. Зависит от высоты солнца над горизонтом, облачности и скорости ветра. Ночью, в пасмурную погоду, а также при ветре 12 м/с и более поправка равна нулю.
P - Атмосферное давление - приведенное к уровню моря атмосферное давление.
Po - Атмосферное давление - измеренное на уровне метеостанции атмосферное давление.
Tmin - Минимальная температура - минимум температуры воздуха на высоте 2 м над землей.
Tmax - Максимальная температура - максимум температуры воздуха на высоте 2 м над землей.
R - Количество осадков - Количество выпавших осадков за период времени, мм. При наведении курсора мыши на число - период времени, за который выпало указанное количество осадков.
R24 - Количество осадков - Количество выпавших осадков за 24 часа, мм.
S - Снежный покров - Высота снежного покрова, см. При наведении курсора мыши на число - состояние снежного покрова и степень покрытия местности в баллах.